Regional Weather Roundup
Issued by NWS

Home | Current Version | Previous Version | Text Only | Print | Product List | Glossary Off
Versions: 1 2 3 4 5 6 7 8 9 10 11 12 13 14 15 16 17 18 19 20 21 22 23 24 25 26 27 28 29 30 31 32 33 34 35 36 37 38 39 40 41 42 43 44 45 46 47 48 49 50

000
ASUS43 KLOT 251406
RWRIL

ILLINOIS REGIONAL WEATHER ROUNDUP
NATIONAL WEATHER SERVICE CHICAGO/ROMEOVILLE IL
800 AM CST SUN JAN 25 2015

NOTE: "FAIR" INDICATES FEW OR NO CLOUDS BELOW 12,000 FEET WITH NO
SIGNIFICANT WEATHER AND/OR OBSTRUCTIONS TO VISIBILITY.

* THESE STATIONS ARE NOT UNDER NWS QUALITY CONTROL. THEY ALSO MAY NOT
  REPORT WEATHER SUCH AS PRECIPITATION OR FOG.

ILZ001-002-007-009-015-016-024-251500-
NORTHWEST ILLINOIS

CITY           SKY/WX    TMP DP  RH WIND       PRES   REMARKS
MOLINE         LGT SNOW  33  30  88 NE17      29.68R VSB 3/4 WCI  22
STERLING*      CLOUDY    30  27  86 NE18G24   29.72R WCI  18
SAVANNA*       LGT SNOW  31  27  86 NE21G26   29.74R WCI  18
$$

ILZ003-004-008-010-011-017-018-251500-
NORTH CENTRAL ILLINOIS

CITY           SKY/WX    TMP DP  RH WIND       PRES   REMARKS
ROCKFORD       LGT SNOW  29  25  85 NE22G29   29.77R FOG     WCI  15
FREEPORT*      LGT SNOW  28  25  88 NE20G25   29.78R WCI  15
ROCHELLE*      LGT SNOW  29  27  90 NE24      29.73R WCI  15
DE KALB*       MIX PCPN  28  26  89 NE25      29.73R WCI  14
PERU*          LGT SNOW  33  33  97 NE14      29.69R VSB 1   WCI  24
$$

ILZ005-006-012>014-019>023-251500-
NORTHEAST ILLINOIS

CITY           SKY/WX    TMP DP  RH WIND       PRES   REMARKS
CHICAGO-OHARE  LGTSLEET  32  30  92 NE17      29.74R FOG     WCI  21
CHICAGO-MIDWAY LGT RAIN  36  33  89 NE18G24   29.73R WCI  26
AURORA         LGT SNOW  33  28  81 NE21G30   29.71R WCI  21
LANSING*       LGT RAIN  34  33  95 NE9       29.72R WCI  27
JOLIET*        RAIN      34  33  95 NE9       29.71S WCI  27
WAUKEGAN       LGT SNOW  28  25  88 N18G28    29.78R FOG     WCI  15
DUPAGE AIRPORT LGT SNOW  31  28  89 NE20G29   29.73R FOG     WCI  19
KANKAKEE*      LGT RAIN  34  33  97 NE10      29.69S WCI  26
WHEELING       LGT SNOW  31  29  92 NE15G22   29.78R VSB 3/4 WCI  20
MORRIS*        LGT RAIN  33  33 100 NE6       29.70R WCI  28
ROMEOVILLE*    LGT RAIN  35  34  96 NE12G18   29.71R WCI  26
NORTHERLY ISL    N/A     33  32  96 NE21        N/A  WCI  21
$$

LMZ740>746-251500-
SOUTHERN LAKE MICHIGAN

STATION/POSITION SKY/WX   TEMP    WIND        PRES    VSBY  WAVE
                          AIR SEA DIR/SP/G                  HT/PER
                          (F)     (DEG/KT/KT) (MB)    (MI)  (FT/S)
WAUKEGAN HARBOR            30      30/ 26/ 36   N/A
HARRISON CRIB              33      40/ 23/ 28   N/A
BURNHAM HARBOR             33      20/ 14/ 19   N/A
CALUMET HARBOR             34      20/  9/ 12   N/A
MICHIGAN CITY              33      40/ 12/ 13   N/A
$$

ILZ025>027-034>036-040-047-049-050-058-095>099-251500-
WEST-CENTRAL ILLINOIS

CITY           SKY/WX    TMP DP  RH WIND       PRES   REMARKS
QUINCY         LGT RAIN  38  36  92 NE6       29.57S FOG     WCI  33
GALESBURG*     LGT RAIN  34  33  98 NE14      29.64R WCI  24
MACOMB*        LGT RAIN  37  37 100 NE10      29.63R WCI  30
JACKSONVILLE*  LGT RAIN  39  38  94 E3        29.59R
PITTSFIELD*    DRIZZLE   42  40  93 CALM      29.58S
$$

ILZ028>032-037-038-041>044-048-051>054-059>061-251500-
CENTRAL ILLINOIS

CITY           SKY/WX    TMP DP  RH WIND       PRES   REMARKS
PONTIAC        LGT RAIN  34  34  98 NE20      29.67S WCI  23
BLOOMINGTON    LGT RAIN  33  33 100 NE13      29.64S FOG     WCI  24
DECATUR        LGT RAIN  41  38  89 NW9       29.60S
PEORIA         LGT RAIN  36  33  89 NE13      29.63R FOG     WCI  27
LACON*         LGT SNOW  33  32  95 E12G20    29.66S WCI  24
LINCOLN*       RAIN      36  34  94 NE3       29.62S
SPRINGFIELD    LGT RAIN  39  39 100 CALM      29.60S
TAYLORVILLE    LGT RAIN  37  36  93 CALM      29.60S
$$

ILZ033-039-045-046-055>057-062-063-251500-
EAST-CENTRAL ILLINOIS

CITY           SKY/WX    TMP DP  RH WIND       PRES   REMARKS
CHAMPAIGN      LGT RAIN  35  32  88 NE7       29.62S WCI  29
DANVILLE*      LGT RAIN  34  32  92 NE8       29.62S WCI  27
RANTOUL*       LGT RAIN  36  34  93 NE6       29.63S WCI  31
MATTOON        LGT RAIN  36  34  92 S3        29.60S
PARIS*         LGT RAIN  36  34  92 CALM      29.63S
$$

ILZ079-100>102-251500-
SOUTHWEST ILLINOIS

CITY           SKY/WX    TMP DP  RH WIND       PRES   REMARKS
ALTON          CLOUDY    43  41  93 SW7       29.59F FOG
BELLEVILLE     CLOUDY    43  43  99 S3        29.59F
CAHOKIA*       CLOUDY    44  42  93 SE3       29.58F
SPARTA*        CLOUDY    41  36  81 S8        29.62F
$$

ILZ064>066-069>071-074>076-080>082-084>086-088>090-092>094-251500-
SOUTH-CENTRAL ILLINOIS

CITY           SKY/WX    TMP DP  RH WIND       PRES   REMARKS
CARBONDALE     CLOUDY    40  36  86 S9        29.63F
CAIRO*         LGT RAIN  44  37  76 S5        29.68F
EFFINGHAM*     RAIN      40  37  88 SE3       29.63S
MARION         LGT RAIN  41  37  87 S9        29.66F
MT. VERNON     CLOUDY    39  34  81 S7        29.64S WCI  34
CENTRALIA*     CLOUDY    40  35  81 S9        29.61F
SALEM*         LGT RAIN  42  37  83 S6        29.62S
METROPOLIS*    CLOUDY    43  35  74 SW6       29.68F
$$

ILZ067-068-072-073-078-083-087-091-251500-
SOUTHEAST ILLINOIS

CITY           SKY/WX    TMP DP  RH WIND       PRES   REMARKS
LAWRENCEVILLE  CLOUDY    39  34  82 S9        29.65S WCI  33
FLORA*         DRIZZLE   40  35  80 S9        29.63F
FAIRFIELD*     LGT RAIN  40  36  84 S6        29.63F
HARRISBURG*    RAIN      41  36  80 SW9       29.67S
ROBINSON*      CLOUDY    38  33  82 E6        29.64F WCI  34
CARMI*         DRIZZLE   43  37  81 S7        29.66S
$$

ABBREVIATIONS USED IN REMARKS
   TC - TEMPERATURE IN CELSIUS
  WCI - WIND CHILL INDEX
   HX - HEAT INDEX
  VSB - VISIBILITY
$$




USA.gov is the U.S. government's official web portal to all federal, state and local government web resources and services.